TimeMDT,TemperatureF,Dew PointF,Humidity,Sea Level PressureIn,VisibilityMPH,Wind Direction,Wind SpeedMPH,Gust SpeedMPH,PrecipitationIn,Events,Conditions,WindDirDegrees,DateUTC
12:56 AM,37.0,34.0,89,30.01,-9999.0,Calm,Calm,-,N/A,,Unknown,0,2013-06-14 06:56:00
1:56 AM,33.1,32.0,96,30.03,-9999.0,Calm,Calm,-,N/A,,Unknown,0,2013-06-14 07:56:00
2:56 AM,30.9,30.9,100,30.01,-9999.0,Calm,Calm,-,N/A,,Unknown,0,2013-06-14 08:56:00
3:56 AM,30.9,30.0,96,29.99,-9999.0,Calm,Calm,-,N/A,,Unknown,0,2013-06-14 09:56:00
4:56 AM,33.1,32.0,96,29.98,-9999.0,Variable,3.5,-,N/A,,Unknown,0,2013-06-14 10:56:00
5:56 AM,34.0,33.1,96,29.99,-9999.0,Variable,3.5,-,N/A,,Unknown,0,2013-06-14 11:56:00
6:56 AM,36.0,28.9,76,30.01,-9999.0,Variable,6.9,16.1,N/A,,Unknown,0,2013-06-14 12:56:00
7:56 AM,36.0,26.1,67,30.09,-9999.0,Variable,6.9,20.7,N/A,,Unknown,0,2013-06-14 13:56:00
8:56 AM,37.0,24.1,59,30.11,-9999.0,Variable,6.9,17.3,N/A,,Unknown,0,2013-06-14 14:56:00
9:56 AM,37.9,24.1,57,30.16,-9999.0,Variable,5.8,-,N/A,,Unknown,0,2013-06-14 15:56:00
10:56 AM,42.1,26.1,53,30.14,-9999.0,Variable,6.9,-,N/A,,Unknown,0,2013-06-14 16:56:00
11:56 AM,43.0,26.1,51,30.13,-9999.0,West,9.2,23.0,N/A,,Unknown,270,2013-06-14 17:56:00
12:56 PM,44.1,24.1,45,30.14,-9999.0,Variable,4.6,24.2,N/A,,Unknown,0,2013-06-14 18:56:00
1:56 PM,46.0,25.0,44,30.16,-9999.0,SW,8.1,-,N/A,,Unknown,230,2013-06-14 19:56:00
2:56 PM,46.0,25.0,44,30.16,-9999.0,WSW,8.1,-,N/A,,Unknown,250,2013-06-14 20:56:00
3:56 PM,46.0,21.9,39,30.16,-9999.0,Variable,6.9,-,N/A,,Unknown,0,2013-06-14 21:56:00
4:56 PM,46.9,30.9,54,30.16,-9999.0,West,8.1,16.1,N/A,,Unknown,270,2013-06-14 22:56:00
5:56 PM,46.0,30.0,54,30.16,-9999.0,WNW,6.9,-,N/A,,Unknown,300,2013-06-14 23:56:00
6:56 PM,39.0,32.0,76,30.20,-9999.0,Variable,6.9,-,N/A,,Unknown,0,2013-06-15 00:56:00
7:56 PM,37.0,32.0,82,30.22,-9999.0,WNW,8.1,18.4,N/A,,Unknown,300,2013-06-15 01:56:00
8:56 PM,37.9,33.1,83,30.22,-9999.0,Calm,Calm,-,N/A,,Unknown,0,2013-06-15 02:56:00
9:56 PM,35.1,32.0,89,30.26,-9999.0,Calm,Calm,-,N/A,,Unknown,0,2013-06-15 03:56:00
10:56 PM,30.9,28.9,92,30.27,-9999.0,NW,3.5,-,N/A,,Unknown,320,2013-06-15 04:56:00
11:56 PM,28.9,28.0,96,30.27,-9999.0,Calm,Calm,-,N/A,,Unknown,0,2013-06-15 05:56:00